Location: Acres Farm
(34.8145°N, 90.2815°W)
Time: 05:12:20
(UTC+00:00)

BlueWalker 3 - Visible Passes

Search period start: 04 October 2024 00:00
Search period end: 14 October 2024 00:00
Orbit: 473 x 486 km, 53.2° (Epoch: 03 October)

Date Brightness Start Highest point End Pass type
(mag) Time Alt. Az. Time Alt. Az. Time Alt. Az.
04 Oct 2.3 10:09:42 55° SE 10:09:42 55° SE 10:13:18 10° NE visible
05 Oct 4.0 09:43:16 26° ENE 09:43:16 26° ENE 09:45:08 10° ENE visible
05 Oct 3.5 11:17:30 12° WNW 11:19:44 19° NNW 11:22:28 10° NNE visible
06 Oct 5.2 09:16:41 11° ENE 09:16:41 11° ENE 09:16:55 10° ENE visible
06 Oct 3.3 10:50:54 20° NW 10:51:32 21° NW 10:54:26 10° NNE visible
07 Oct 3.6 10:24:10 21° NNW 10:24:10 21° NNW 10:26:20 10° NNE visible
08 Oct 4.4 09:57:18 15° NNE 09:57:18 15° NNE 09:58:12 10° NNE visible
